Preview of NWS' New Version of Forecast
This preview is not operational and should not be used for support decisions.
Latest weather observations around

Boston, Logan International Airport (KBOS)

Using English Units (Switch to International System of Units)
Date/ Time (EDT) Wind (mph) Vis. (mi) Weather Sky Cond. Temp (°F) Rel. Humidity Wind Chill (°F) Heat Index (°F) Pressure Precip. (in)
Air Dwpt 6 hour Altimeter (inHg) Sea level (inHg) 1 hr 3 hr 6 hr
Max Min
Jul 21 23:54   10 Mostly Cloudy FEW100 SCT220 BKN250 86 66     51%   88 29.78 29.78      
Jul 21 22:54 WNW 9 10 Mostly Cloudy FEW080 BKN250 88 66     48%   90 29.78 29.78      
Jul 21 21:54 WNW 11 10 Mostly Cloudy FEW220 BKN250 90 65     44%   92 29.77 29.77      
Jul 21 20:54 W 13 10 Partly Cloudy FEW080 FEW220 SCT250 90 65     44%   92 29.76 29.76      
Jul 21 19:54 W 13 10 Partly Cloudy FEW070 FEW220 SCT250 92 65     41%   94 29.74 29.74      
Jul 21 18:54   10 Mostly Clear FEW070 94 65     39%   96 29.72 29.72      
Jul 21 17:54 W 15 10 Mostly Clear FEW070 96 66     38%   100 29.7 29.7      
Jul 21 16:54 WNW 16 10 Partly Cloudy SCT070 97 66     37%   101 29.7 29.69      
Jul 21 15:54 W 16 10 Partly Cloudy SCT065 97 66     37%   101 29.68 29.68      
Jul 21 14:54 W 15 10 Partly Cloudy SCT055 96 70     43%   103 29.68 29.67      
Jul 21 13:54   10 Partly Cloudy FEW035 FEW120 SCT250 95 70     44%   102 29.67 29.67      
Jul 21 12:54 SW 15 10 Partly Cloudy FEW035 FEW120 SCT220 94 70     46%   100 29.68 29.67      
Jul 21 11:54   10 Partly Cloudy FEW040 SCT120 SCT220 91 70     50%   97 29.7 29.7      
Jul 21 10:54 W 13 10 Mostly Cloudy FEW040 SCT110 BKN150 91 69     49%   96 29.71 29.71      
Jul 21 09:54 W 15 10 Mostly Cloudy FEW040 SCT110 BKN150 89 70     53%   94 29.72 29.72      
Jul 21 08:54 W 15 10 Partly Cloudy FEW040 FEW150 SCT250 89 70     53%   94 29.71 29.7      
Jul 21 07:54 W 11 10 Partly Cloudy FEW040 FEW150 SCT250 87 70     57%   92 29.71 29.71      
Jul 21 06:54 W 15 10 Partly Cloudy FEW140 SCT250 85 69     59%   89 29.71 29.7      
Jul 21 05:54 WSW 9 10 Partly Cloudy FEW140 SCT220 SCT250 83 69     63%   87 29.7 29.7      
Jul 21 04:54 W 9 10 Mostly Cloudy FEW090 SCT160 BKN250 84 68     59%   87 29.71 29.7      
Jul 21 03:54 W 13 10 Partly Cloudy SCT250 85 68     57%   88 29.69 29.69      
Jul 21 02:54 W 11 10 Partly Cloudy SCT250 85 68     57%   88 29.7 29.7      
Jul 21 01:54 W 14 10 Partly Cloudy FEW200 SCT250 86 71     61%   92 29.71 29.71      
Jul 21 00:54 WSW 11 10 Mostly Cloudy FEW200 BKN250 88 71     57%   94 29.7 29.7      
Jul 20 23:54 WSW 9 10 Mostly Cloudy FEW200 BKN250 88 75     66%   98 29.71 29.71      
Jul 20 22:54 SW 11 10 Partly Cloudy SCT200 89 77     68%   102 29.73 29.72      
Jul 20 21:54 SW 9 10 Partly Cloudy FEW060 SCT250 91 76     61%   103 29.75 29.75      
Jul 20 20:54 WSW 10 10 Partly Cloudy FEW055 SCT250 92 76     60%   104 29.74 29.73      
Jul 20 19:54 WSW 10 10 Mostly Cloudy FEW050 FEW120 BKN250 93 76     58%   106 29.74 29.74      
Jul 20 18:54 WSW 13 10 Partly Cloudy FEW050 SCT250 95 75     53%   107 29.71 29.71      
Jul 20 17:54 W 11 10 Partly Cloudy FEW050 SCT250 95 74     51%   106 29.71 29.7      
Jul 20 16:54 WSW 13 10 Partly Cloudy FEW050 SCT250 96 74     49%   107 29.71 29.71      
Jul 20 15:54 SSW 9 10 Partly Cloudy SCT047 SCT250 95 75     53%   107 29.73 29.72      
Jul 20 14:54 WSW 6 10 Mostly Cloudy SCT047 SCT150 BKN250 94 74     53%   104 29.75 29.75      
Jul 20 13:54 WSW 10 10 Mostly Cloudy SCT047 BKN250 94 74     53%   104 29.77 29.76      
Jul 20 12:54 WNW 8 10 Clear   95 73     49%   105 29.78 29.78      
Jul 20 11:54 W 7 10 Mostly Cloudy FEW040 SCT220 BKN250 94 72     49%   102 29.79 29.79      
Jul 20 10:54 W 9 10 Mostly Cloudy FEW040 SCT220 BKN250 92 73     54%   101 29.79 29.79      
Jul 20 09:54 W 10 10 Mostly Cloudy FEW150 BKN250 90 73     58%   98 29.8 29.8      
Jul 20 08:54 W 10 10 Mostly Cloudy FEW150 BKN250 89 73     59%   97 29.79 29.79      
Jul 20 07:54 W 11 10 Mostly Cloudy FEW150 FEW220 BKN250 86 73     65%   93 29.8 29.8      
Jul 20 06:54 W 9 10 Mostly Cloudy FEW150 FEW220 BKN250 84 73     70%   90 29.79 29.79      
Jul 20 05:54 WSW 9 10 Mostly Cloudy FEW180 FEW220 BKN250 82 73     74%   87 29.77 29.77      
Jul 20 04:54 SW 7 10 Partly Cloudy SCT220 SCT250 80 74     82%   85 29.75 29.75      
Jul 20 03:54 WSW 7 10 Mostly Cloudy BKN180 BKN250 82 75     79%   89 29.74 29.74      
Jul 20 02:54 SW 13 10 Cloudy BKN180 OVC250 82 75     79%   89 29.75 29.75      
Jul 20 01:54 SW 10 10 Mostly Cloudy SCT220 BKN250 83 75     77%   90 29.75 29.75      
Jul 20 00:54 SW 13 10 Cloudy FEW180 OVC250 83 75     77%   90 29.76 29.75      
Jul 19 23:54 SW 14 10 Mostly Cloudy BKN250 84 75     74%   92 29.77 29.76      
Jul 19 22:54 SW 10 10 Mostly Clear FEW180 FEW250 84 75     74%   92 29.78 29.78      
Jul 19 21:54 SW 14 10 Mostly Cloudy FEW045 BKN160 BKN250 86 74     67%   94 29.78 29.78      
Jul 19 20:54 WSW 13 10 Mostly Cloudy FEW045 BKN160 BKN250 88 74     63%   97 29.76 29.76      
Jul 19 19:54 WSW 14 10 Mostly Cloudy FEW045 SCT160 BKN250 90 73     58%   98 29.76 29.76      
Jul 19 18:54 WSW 11 10 Mostly Cloudy FEW045 SCT140 BKN250 91 73     56%   100 29.76 29.76      
Jul 19 17:54 SW 16 10 Mostly Cloudy FEW045 BKN250 92 72     52%   100 29.76 29.75      
Jul 19 16:54 WSW 11 10 Mostly Cloudy SCT046 BKN250 92 71     51%   99 29.77 29.76      
Jul 19 15:54 WSW 13 10 Mostly Cloudy FEW042 BKN250 92 71     51%   99 29.78 29.78      
Jul 19 14:54 SW 13 10 Mostly Cloudy FEW030 BKN250 91 72     54%   99 29.78 29.78      
Jul 19 13:54 SW 10 10 Mostly Clear FEW030 FEW250 88 70     55%   93 29.81 29.8      
Jul 19 12:54 SSE 8 10 Mostly Clear FEW030 FEW250 80 67     64%   82 29.83 29.83      
Jul 19 11:54 SE 10 10 Mostly Clear FEW030 FEW250 78 64     62%   79 29.85 29.85      
Jul 19 10:54 SE 9 10 Mostly Clear FEW030 FEW250 75 61     62%   75 29.86 29.86      
Jul 19 09:54 SE 7 10 Partly Cloudy FEW027 SCT030 SCT250 73 59     61%   73 29.88 29.88      
Jul 19 08:54 SSE 5 10 Mostly Cloudy FEW027 BKN030 71 60     68%   71 29.89 29.89      
Jul 19 07:54 SE 3 10 Mostly Cloudy BKN030 70 58     66%     29.9 29.9      
Jul 19 07:45 E 3 10 Cloudy OVC029 71 55     57%   71 29.9        
Jul 19 06:54 N 3 10 Mostly Cloudy FEW020 BKN033 70 55     59%     29.91 29.9      
Jul 19 06:31 N 6 10 Cloudy SCT019 OVC035 69 55     61%     29.91        
Jul 19 05:54 3 10 Mostly Cloudy BKN019 68 56     65%     29.89 29.89      
Jul 19 04:54 N 7 10 Cloudy OVC020 68 57     68%     29.88 29.88      
Jul 19 03:54 NNW 7 10 Cloudy OVC021 67 58     73%     29.89 29.89      
Jul 19 03:13 N 6 10 Mostly Cloudy BKN023 67 58     73%     29.89        
Jul 19 02:54 N 6 10 Partly Cloudy SCT021 67 58     73%     29.89 29.89      
Jul 19 02:38 NNE 5 10 Partly Cloudy SCT021 66 58     75%     29.89        
Jul 19 01:54 NNE 3 10 Cloudy OVC021 68 59     73%     29.91 29.91      
Jul 19 00:54 N 3 10 Mostly Cloudy BKN022 67 59     76%     29.92 29.91      
Jul 19 00:42 N 3 10 Mostly Cloudy BKN022 68 59     73%     29.92        
Jul 18 23:54 NE 3 10 Mostly Clear FEW020 FEW120 67 58     73%     29.93 29.92      
Jul 18 22:54 NNE 5 10 Mostly Clear FEW120 FEW250 67 58     73%     29.93 29.93      
Jul 18 21:54 ENE 6 10 Mostly Cloudy SCT025 BKN120 68 57     68%     29.94 29.94      
Jul 18 21:31 NE 6 10 Mostly Cloudy SCT025 BKN120 68 57     68%     29.95        
Jul 18 20:54 ENE 6 10 Cloudy BKN026 OVC130 68 57     68%     29.95 29.95      
Jul 18 19:54 ENE 7 10 Cloudy FEW017 BKN027 OVC130 68 59     73%     29.95 29.95      
Jul 18 18:54 ENE 10 10 Cloudy FEW018 OVC027 68 59     73%     29.96 29.96      
Jul 18 17:54 ENE 10 10 Cloudy FEW018 OVC025 69 60     73%     29.97 29.96      
Jul 18 16:54 ENE 10 10 Cloudy OVC025 69 58     68%     29.96 29.96      
Jul 18 15:54 E 10 10 Cloudy OVC025 69 59     70%     29.97 29.96      
Jul 18 14:54 ENE 8 10 Cloudy OVC028 70 58     66%     29.98 29.98      
Jul 18 13:54 NE 11 10 Cloudy OVC027 71 56     59%   71 29.99 29.99     0
Jul 18 12:54 ENE 14 10 Cloudy OVC028 70 58     66%     30.01 30.01      
Jul 18 11:54 NE 14 10 Cloudy OVC023 69 57     65%     30 30      
Jul 18 10:54 ENE 14 10 Cloudy BKN023 OVC034 69 60     73%     30 29.99 0 0  
Jul 18 10:46 ENE 17 10 Cloudy BKN023 BKN030 OVC036 69 60     73%     29.99   0    
Jul 18 10:06 NE 14 2 Light Rain and Fog/Mist FEW005 OVC022 68 59     73%     30.01   0    
Jul 18 09:54 NE 11 1 Light Rain and Fog/Mist SCT005 OVC022 68 60     76%     30.01 30.01 0    
Jul 18 09:49 NE 14 1 Rain and Fog/Mist SCT005 OVC022 68 61     78%     30.01   0    
Jul 18 09:46 NE 15 1 Rain OVC022 68 60     76%     30.01   0    
Jul 18 08:54 NE 16 10 Cloudy OVC020 69 61     75%     30 29.99 0    
Jul 18 08:25 NE 17 4 Light Rain OVC017 69 62     78%     29.98   0    
Jul 18 07:54   10 Cloudy OVC014 71 64     79%   72 29.98 29.98      
Jul 18 07:47 NNE 14 10 Cloudy OVC014 71 65     81%   72 29.98        
Jul 18 06:54 NE 15 10 Cloudy FEW016 OVC024 73 66     79%   74 29.95 29.94      
Jul 18 05:54 NE 13 10 Mostly Cloudy FEW015 BKN022 74 68     82%   75 29.93 29.92      
Jul 18 05:13 NNE 13 10 Mostly Cloudy SCT014 BKN020 76 71     85%   77 29.92        
Jul 18 05:06 NNE 11 10 Cloudy BKN013 BKN020 OVC080 76 71     85%   77 29.91        
Jul 18 04:54 NNE 8 10 Cloudy SCT014 BKN020 OVC075 76 71     85%   77 29.91 29.91      
Jul 18 03:54 NNW 8 10 Cloudy FEW090 OVC150 77 71     82%   78 29.89 29.89      
Jul 18 02:54 NW 7 10 Cloudy FEW090 FEW110 OVC160 77 71     82%   78 29.87 29.86      
Jul 18 01:54 NW 7 10 Cloudy FEW090 SCT110 OVC130 78 71     79%   79 29.87 29.87     0
Jul 18 00:54 W 8 10 Cloudy BKN070 OVC085 78 71     79%   79 29.91 29.91      
Jul 17 23:54 WSW 10 10 Cloudy OVC110 78 71     79%   79 29.91 29.91 0    
Jul 17 22:54 SW 9 10 Light Rain FEW065 OVC140 78 72     82%   79 29.9 29.9 0 0  
Jul 17 21:54 SW 7 10 Mostly Cloudy FEW065 BKN130 BKN200 76 72     88%   77 29.88 29.88 0    
Jul 17 20:54 Calm 10 Light Rain FEW009 SCT050 BKN095 OVC200 78 71     79%   79 29.89 29.89 0    
Jul 17 19:54 Calm 10 Cloudy FEW009 FEW070 BKN120 OVC200 76 72     88%   77 29.91 29.91 0   0
Jul 17 18:54 3 10 Cloudy FEW007 FEW031 BKN130 OVC200 77 71     82%   78 29.87 29.87 0    
Jul 17 18:27 W 7 5 Light Rain FEW005 FEW016 SCT031 BKN130 OVC200 77 70     79%   78 29.87   0    
Jul 17 18:09 WSW 10 3 Thunderstorms and Rain FEW003 SCT016 BKN031 OVC130 77 73     88%   79 29.89   0    
Jul 17 18:03 W 6 1 Thunderstorms and Rain FEW003 BKN016 BKN029 OVC130 76 72     88%   77 29.9   0    
Jul 17 17:54 5 0.25 Thunderstorms and Heavy Rain and Fog FEW003 SCT013 OVC029 76 72     88%   77 29.9   0    
Jul 17 17:48   0.25 Thunderstorms and Heavy Rain FEW003 SCT024 BKN065 BKN130 BKN200 81 72     74%   85 29.9   0    
Jul 17 17:39 NNE 7 10 Thunderstorms FEW010 SCT024 BKN065 BKN130 BKN200 83 71     67%   88 29.85        
Jul 17 16:54 WNW 9 10 Thunderstorms FEW011 SCT025 BKN049 BKN130 BKN200 88 71     57%   94 29.83 29.83 0 0  
Jul 17 16:27 WSW 15 10 Light Rain FEW014 SCT027 BKN049 BKN130 OVC200 85 72     65%   91 29.83   0    
Jul 17 16:14 S 15 10 Thunderstorms and Rain FEW014 SCT027 BKN120 OVC200 87 71     59%   93 29.84   0    
Jul 17 16:06 W 6 10 Mostly Cloudy FEW014 SCT034 BKN120 BKN200 90 71     54%   96 29.82        
Jul 17 15:54 6 10 Mostly Cloudy FEW036 SCT120 BKN220 91 70     50%   97 29.82 29.82 0    
Jul 17 14:54 W 14 10 Mostly Cloudy SCT036 BKN065 BKN140 BKN200 91 70     50%   97 29.86 29.85      
Jul 17 13:54 SW 9 10 Mostly Cloudy FEW040 SCT090 BKN140 BKN200 91 71     52%   98 29.86 29.86      
Jul 17 12:54 WSW 15 10 Mostly Cloudy FEW050 SCT095 BKN140 BKN200 92 71     51%   99 29.89 29.88      
Jul 17 11:54 SW 14 10 Mostly Cloudy FEW050 BKN100 BKN140 BKN200 87 71     59%   93 29.9 29.9      
Jul 17 10:54 WSW 10 10 Cloudy BKN100 OVC140 84 69     61%   88 29.91 29.91      
Jul 17 09:54 SW 13 10 Cloudy OVC095 83 69     63%   87 29.92 29.92      
Jul 17 08:54 WSW 15 10 Mostly Cloudy FEW060 BKN100 BKN140 82 68     63%   85 29.93 29.93      
Jul 17 07:54 SW 14 10 Mostly Cloudy FEW060 BKN095 BKN140 81 68     65%   84 29.92 29.92      
Jul 17 06:54 SW 11 10 Mostly Cloudy BKN110 BKN200 79 68     69%   80 29.92 29.92      
Jul 17 05:54 WSW 13 10 Partly Cloudy SCT150 SCT200 78 68     71%   79 29.92 29.91      
Jul 17 04:54 SW 16 10 Mostly Cloudy BKN150 BKN200 78 68     71%   79 29.91 29.91      
Jul 17 03:54 SW 13 10 Partly Cloudy FEW110 SCT200 78 67     69%   79 29.91 29.91      
Jul 17 02:54 SW 14 10 Partly Cloudy SCT220 78 66     67%   79 29.92 29.92      
Jul 17 01:54 SW 16 10 Partly Cloudy SCT220 79 65     62%   80 29.93 29.93      
Jul 17 00:54 SW 13 10 Mostly Clear FEW200 79 65     62%   80 29.94 29.94      
Jul 16 23:54 SW 11 10 Mostly Clear FEW160 80 66     62%   82 29.95 29.95      
Jul 16 22:54 SW 15 10 Mostly Clear FEW160 82 66     58%   84 29.96 29.96      
Jul 16 21:54 SSW 11 10 Partly Cloudy SCT160 SCT190 82 66     58%   84 29.97 29.97      
Jul 16 18:54 S 8 10 Mostly Cloudy SCT110 BKN190 BKN250 84 64     51%   85 29.95 29.95      
Jul 16 17:54 WSW 9 10 Mostly Cloudy FEW055 BKN120 BKN250 87 60     40%   87 29.96 29.96      
Jul 16 16:54 W 10 10 Mostly Cloudy FEW055 BKN110 BKN250 89 61     39%   89 29.98 29.98      
Jul 16 15:54 W 7 10 Mostly Cloudy FEW065 BKN150 BKN250 88 58     36%   87 29.99 29.98      
Jul 16 14:54 WSW 11 10 Mostly Cloudy FEW065 SCT150 BKN250 88 57     35%   87 30 29.99      
Jul 16 13:54 W 10 10 Mostly Cloudy SCT160 BKN250 88 56     34%   86 30.01 30.01      
Jul 16 12:54 SSW 10 10 Mostly Cloudy BKN150 BKN250 85 59     42%   85 30.02 30.02      
Jul 16 11:54 WSW 9 10 Partly Cloudy FEW120 SCT250 86 58     39%   85 30.04 30.04      
Jul 16 10:54 WSW 13 10 Partly Cloudy FEW170 SCT250 83 57     41%   82 30.05 30.05      
Jul 16 09:54 SE 6 10 Mostly Cloudy BKN250 78 60     54%   78 30.06 30.06      
Jul 16 08:54 SE 3 10 Mostly Cloudy BKN250 76 60     58%   76 30.07 30.07      
Jul 16 07:54 Calm 10 Mostly Cloudy BKN250 77 57     50%   77 30.07 30.07      
Jul 16 06:54 WNW 5 10 Mostly Cloudy BKN250 73 57     57%   73 30.06 30.06      
Jul 16 05:54 NW 3 10 Partly Cloudy FEW060 SCT250 71 57     61%   71 30.05 30.05      
Jul 16 04:54 WNW 8 10 Partly Cloudy FEW060 SCT250 71 56     59%   71 30.04 30.03      
Jul 16 03:54 WNW 8 10 Mostly Cloudy BKN250 72 56     57%   72 30.03 30.03      
Jul 16 02:54 WNW 10 10 Mostly Cloudy FEW140 BKN250 73 56     55%   73 30.03 30.03      
Jul 16 01:54 WNW 8 10 Partly Cloudy FEW140 SCT250 74 56     53%   74 30.04 30.03      
Jul 16 00:54 WNW 8 10 Clear   75 56     52%   75 30.03 30.03      
Jul 15 23:54 NW 7 10 Partly Cloudy FEW140 SCT250 76 56     50%   76 30.03 30.03      
Jul 15 22:54 NW 8 10 Partly Cloudy FEW140 SCT250 77 56     48%   77 30.02 30.02      
Jul 15 21:54 NW 10 10 Mostly Cloudy SCT140 BKN250 79 56     45%   79 30.01 30.01      
Jul 15 20:54 NW 10 10 Mostly Cloudy FEW055 SCT140 BKN250 81 55     41%   81 30 29.99      
Jul 15 19:54 NW 8 10 Mostly Cloudy FEW055 SCT140 BKN250 83 53     36%   82 29.98 29.98      
Jul 15 18:54 WNW 14 10 Mostly Cloudy FEW055 FEW140 BKN250 84 53     35%   83 29.97 29.97      
Jul 15 17:54 W 11 10 Mostly Cloudy FEW055 BKN250 84 53     35%   83 29.96 29.96      
Jul 15 16:54 WNW 16 10 Partly Cloudy FEW060 SCT250 85 53     34%   83 29.96 29.96      
Jul 15 15:54 W 13 10 Partly Cloudy FEW060 SCT250 86 53     32%   84 29.97 29.97      
Jul 15 14:54 WNW 11 10 Mostly Clear FEW060 FEW250 85 55     36%   84 29.97 29.97      
Jul 15 13:54 WNW 11 10 Mostly Clear FEW060 FEW250 83 54     37%   82 29.98 29.98      
Jul 15 12:54 NNW 8 10 Mostly Clear FEW060 FEW250 82 53     37%   81 30 30      
Jul 15 11:54 WNW 11 10 Partly Cloudy FEW060 SCT250 81 53     38%   80 30.01 30.01      
Jul 15 10:54 WNW 10 10 Partly Cloudy FEW055 SCT250 80 54     41%   80 30.01 30.01      
Jul 15 09:54 WNW 13 10 Partly Cloudy SCT250 78 55     45%   78 30.01 30.01      
Jul 15 08:54 NW 13 10 Partly Cloudy SCT250 76 56     50%   76 30.02 30.01      
Jul 15 07:54 WNW 13 10 Partly Cloudy SCT250 74 56     53%   74 30.01 30.01      
Jul 15 06:54 WNW 9 10 Mostly Clear FEW250 72 56     57%   72 30.01 30      
Jul 15 05:54 NW 10 10 Partly Cloudy SCT250 71 55     57%   71 30 29.99      
Jul 15 04:54 NNW 9 10 Mostly Cloudy BKN250 71 55     57%   71 29.99 29.98      
Jul 15 03:54 NW 13 10 Mostly Cloudy BKN250 72 55     55%   71 29.97 29.96      
Jul 15 02:54 NW 11 10 Partly Cloudy SCT250 73 55     53%   73 29.96 29.96      
Jul 15 01:54 NW 11 10 Partly Cloudy SCT250 75 56     52%   75 29.96 29.95      
Jul 15 00:54 NNW 13 10 Partly Cloudy FEW080 SCT250 76 55     48%   75 29.95 29.95      
Jul 14 23:54 NNW 14 10 Mostly Clear FEW080 78 55     45%   78 29.95 29.94      
Jul 14 22:54 NNW 10 10 Partly Cloudy FEW055 SCT080 80 58     47%   80 29.94 29.94      
Jul 14 21:54 N 13 10 Mostly Cloudy FEW065 BKN070 BKN085 83 59     44%   83 29.92 29.92      
Jul 14 20:54 NNW 13 10 Mostly Cloudy SCT060 BKN080 85 59     42%   85 29.89 29.89      
Jul 14 19:54 NW 10 10 Mostly Cloudy SCT070 SCT085 BKN150 86 61     43%   86 29.86 29.86      
Jul 14 18:54 NW 13 10 Mostly Cloudy BKN090 BKN150 88 60     39%   88 29.84 29.84      
Jul 14 17:54 WNW 14 10 Mostly Cloudy BKN070 BKN100 89 59     36%   88 29.84 29.83      
Jul 14 16:54 W 10 10 Mostly Cloudy SCT070 BKN110 89 59     36%   88 29.82 29.82      
Jul 14 15:54 W 16 10 Partly Cloudy SCT110 90 60     37%   90 29.82 29.82      
Jul 14 14:54 WNW 14 10 Partly Cloudy SCT110 89 60     38%   89 29.82 29.82      
Jul 14 13:54 NW 14 10 Partly Cloudy SCT060 SCT110 90 60     37%   90 29.82 29.82      
Jul 14 12:54 W 10 10 Partly Cloudy SCT060 SCT110 91 63     39%   92 29.84 29.84      
Jul 14 11:54 W 11 10 Partly Cloudy FEW045 SCT090 SCT250 87 63     45%   88 29.85 29.85      
Jul 14 10:54 W 8 10 Mostly Clear FEW120 FEW250 87 64     46%   88 29.85 29.85      
Jul 14 09:54 W 9 10 Mostly Clear FEW120 FEW250 86 63     46%   87 29.85 29.85      
Jul 14 08:54 W 10 10 Partly Cloudy FEW120 SCT250 84 64     51%   85 29.86 29.86      
Jul 14 07:54 WNW 7 10 Partly Cloudy FEW140 SCT250 82 65     56%   84 29.86 29.86      
Jul 14 06:54 W 6 10 Mostly Cloudy FEW110 SCT150 BKN250 78 66     67%   79 29.86 29.86      
Jul 14 05:54 SSW 6 10 Mostly Cloudy SCT110 BKN130 BKN250 74 66     76%   75 29.86 29.85      
Jul 14 04:54 SSW 10 10 Mostly Cloudy BKN110 BKN130 74 66     76%   75 29.85 29.85      
Jul 14 03:54 SW 8 10 Mostly Cloudy BKN160 75 66     74%   76 29.84 29.84      
Jul 14 02:54 SW 6 10 Mostly Clear FEW120 75 65     71%   76 29.84 29.83      
Jul 14 01:54 SW 10 10 Mostly Cloudy BKN100 76 66     71%   77 29.85 29.85      
Jul 14 00:54 SW 8 10 Mostly Clear FEW100 FEW200 77 66     69%   78 29.86 29.85      
Jul 13 23:54 SW 11 10 Mostly Clear FEW250 78 66     67%   79 29.87 29.86      
Jul 13 22:54 SW 11 10 Clear CLR 80 66     62%   82 29.87 29.87      
Jul 13 21:54 SSW 7 10 Mostly Clear FEW200 81 64     56%   83 29.86 29.86      
Jul 13 20:54 SW 8 10 Mostly Clear FEW200 84 63     49%   85 29.85 29.84      
Jul 13 19:54 SW 10 10 Mostly Clear FEW060 FEW200 85 62     46%   86 29.84 29.84      
Jul 13 18:54 W 9 10 Mostly Clear FEW060 FEW200 87 60     40%   87 29.83 29.83      
Jul 13 17:54 W 8 10 Partly Cloudy SCT060 86 61     43%   86 29.84 29.84      
Jul 13 16:54 WSW 11 10 Partly Cloudy SCT060 88 62     42%   88 29.84 29.83      
Jul 13 15:54 6 10 Mostly Cloudy BKN060 83 63     51%   84 29.85 29.84      
Jul 13 14:54 ESE 9 10 Partly Cloudy SCT055 82 62     51%   83 29.86 29.85      
Jul 13 13:54   10 Partly Cloudy SCT055 82 63     53%   83 29.87 29.86      
Jul 13 12:54   10 Partly Cloudy SCT055 81 63     54%   82 29.88 29.87      
Jul 13 11:54 NW 8 10 Mostly Clear FEW050 FEW250 85 57     39%   84 29.88 29.88      
Jul 13 10:54 6 10 Mostly Clear FEW060 82 61     49%   83 29.89 29.88      
Jul 13 09:54   10 Mostly Clear FEW060 81 60     49%   82 29.88 29.88      
Jul 13 08:54 WNW 6 10 Partly Cloudy SCT080 79 61     54%   79 29.88 29.88      
Jul 13 07:54 WNW 8 10 Partly Cloudy SCT080 76 61     60%   76 29.87 29.87      
Jul 13 06:54 WNW 10 10 Partly Cloudy SCT075 73 62     68%   73 29.86 29.85      
Jul 13 05:54 WNW 9 10 Mostly Cloudy BKN080 BKN200 72 63     73%   72 29.83 29.83      
Jul 13 03:54 NW 9 10 Partly Cloudy SCT085 73 65     76%   74 29.79 29.79      
Jul 13 02:54   10 Mostly Cloudy BKN080 74 66     76%   75 29.78 29.78      
Jul 13 01:54 NW 7 10 Clear   74 71     91%   75 29.77 29.77     0
Jul 13 00:54 W 5 10 Partly Cloudy SCT080 73 70     90%   74 29.77 29.77      
Jul 12 23:54 Calm 10 Partly Cloudy SCT060 72 68     87%   73 29.77 29.77      
Jul 12 22:54 SSE 5 10 Cloudy BKN055 OVC070 72 69     91%   73 29.77 29.77 0 0  
Jul 12 21:54 ENE 6 3 Rain and Fog/Mist FEW009 BKN031 OVC070 72 69     91%   73 29.76 29.76 0    
Jul 12 21:42 5 2.5 Heavy Rain and Fog/Mist FEW004 SCT012 BKN022 73 69     87%   74 29.77   0    
Jul 12 21:33 NNE 9 8 Light Rain FEW004 FEW012 BKN022 73 69     87%   74 29.77   0    
Jul 12 20:54 SSE 3 10 Mostly Cloudy FEW004 BKN028 BKN065 72 68     87%   73 29.74 29.74      
Jul 12 20:33 SSE 7 10 Mostly Cloudy FEW004 BKN028 BKN090 73 68     84%   74 29.73        
Jul 12 19:54 SSE 6 8 Mostly Cloudy FEW014 SCT045 BKN085 73 68     84%   74 29.72 29.72     0
Jul 12 18:54 SE 5 8 Mostly Cloudy FEW014 SCT045 SCT110 BKN200 73 69     87%   74 29.7 29.7      
Jul 12 17:54 E 7 10 Mostly Cloudy FEW003 FEW015 SCT045 BKN130 BKN200 74 70     87%   75 29.67 29.66      
Jul 12 16:54 SSE 6 7 Mostly Cloudy SCT002 SCT013 BKN075 BKN200 73 71     94%   74 29.68 29.68 0 0  
Jul 12 16:52 SSE 6 7 Mostly Cloudy SCT002 SCT013 BKN075 BKN200 73 70     89%   75 29.68   0    
Jul 12 16:37 SSE 6 7 Light Rain SCT002 BKN040 BKN200 72 70     93%   73 29.68   0    
Jul 12 16:10 NE 7 4 Light Rain and Patchy Fog FEW001 SCT040 BKN065 OVC200 73 70     90%   74 29.68   0    
Jul 12 15:54 ENE 10 10 Mostly Cloudy FEW003 FEW034 BKN085 73 69     87%   74 29.67 29.67      
Jul 12 14:54 ENE 14 10 Mostly Cloudy FEW015 SCT031 BKN045 79 71     77%   82 29.66 29.66      
Jul 12 14:22 SE 8 10 Mostly Cloudy FEW015 SCT029 BKN035 79 71     77%   82 29.66        
Jul 12 13:54 ESE 9 10 Mostly Cloudy FEW015 BKN023 BKN033 76 70     82%   77 29.67 29.66     0
Jul 12 13:27 ESE 6 10 Mostly Cloudy FEW018 BKN023 BKN038 80 71     74%   84 29.67        
Jul 12 12:54 7 10 Partly Cloudy FEW014 SCT036 SCT250 79 71     77%   82 29.67 29.67      
Jul 12 11:54 E 5 10 Mostly Cloudy SCT007 BKN014 BKN026 BKN250 77 71     82%   78 29.69 29.68      
Jul 12 11:42 ENE 5 10 Mostly Cloudy BKN007 BKN025 BKN250 77 71     82%   78 29.68        
Jul 12 11:19 Calm 10 Mostly Cloudy BKN003 BKN022 BKN250 76 72     88%   77 29.69        
Jul 12 10:54 ENE 5 2 Fog/Mist BKN003 OVC019 73 70     90%   74 29.69 29.69 0 0  
Jul 12 10:31 E 5 2 Fog/Mist BKN004 OVC019 73 71     94%   74 29.69   0    
Jul 12 10:09 NE 3 2 Light Rain and Fog/Mist FEW004 OVC019 73 70     90%   74 29.69   0    
Jul 12 10:01 NE 6 2 Light Rain and Fog/Mist OVC019 73 70     90%   74 29.69   0    
Jul 12 09:54 ENE 7 1.75 Light Rain and Fog/Mist FEW003 BKN017 OVC048 73 70     90%   74 29.69 29.69 0    
Jul 12 09:21 ENE 8 2 Cloudy FEW003 OVC017 72 69     91%   73 29.69        
Jul 12 08:54 ENE 6 10 Cloudy BKN014 OVC024 73 70     90%   74 29.7 29.7 0    
Jul 12 08:36 NNE 7 9 Cloudy BKN014 OVC024 73 70     90%   74 29.7   0    
Jul 12 08:27 NNE 6 7 Cloudy SCT012 BKN023 OVC027 74 70     87%   75 29.7   0    
Jul 12 07:54 NE 3 10 Light Rain FEW008 FEW040 OVC055 73 69     87%   74 29.71 29.7 0   1
Jul 12 06:54 ESE 8 6 Fog/Mist FEW002 SCT065 OVC080 72 69     91%   73 29.69 29.69 0    
Jul 12 06:52 ESE 7 6 Fog/Mist FEW002 SCT065 OVC080 72 70     94%   73 29.69   0    
Jul 12 06:34 ESE 8 2 Light Rain and Fog/Mist FEW002 BKN006 OVC070 71 69     93%   72 29.69   0    
Jul 12 05:54 SE 5 6 Light Rain and Fog/Mist FEW005 BKN008 OVC020 70 68     93%     29.71 29.71 0    
Jul 12 05:30 ENE 8 6 Light Rain and Fog/Mist BKN006 69 67     93%     29.7   0    
Jul 12 04:54 ENE 6 5 Rain and Fog/Mist OVC003 70 67     90%     29.72 29.72 0 0  
Jul 12 04:08 NE 3 3 Light Rain and Fog/Mist OVC004 69 67     93%     29.74   0    
Jul 12 03:54 E 5 3 Heavy Rain and Fog/Mist BKN006 OVC018 70 67     90%     29.75 29.74 0    
Jul 12 03:26 E 8 3 Heavy Rain and Fog/Mist OVC008 69 66     90%     29.75   0    
Jul 12 03:05 E 8 5 Rain and Fog/Mist BKN010 BKN017 OVC044 70 67     90%     29.76   0    
Jul 12 02:54 E 6 10 Light Rain SCT010 BKN015 OVC040 70 67     90%     29.77 29.77 0    
Jul 12 01:54 ESE 6 10 Light Rain BKN015 OVC030 72 67     84%   73 29.8 29.79 0   0
Jul 12 01:40 E 6 10 Light Rain BKN015 BKN031 OVC070 72 67     84%   73 29.8   0    
Jul 12 00:54 S 7 8 Light Rain FEW011 BKN065 OVC080 73 67     81%   74 29.82 29.82 0    
Jul 11 23:54 S 9 10 Cloudy FEW030 BKN090 OVC130 74 64     71%   74 29.83 29.83      
Jul 11 22:54 S 11 10 Cloudy FEW011 SCT090 OVC120 75 65     71%   76 29.86 29.85      
Jul 11 21:54 S 10 10 Cloudy FEW011 BKN110 OVC170 75 66     74%   76 29.87 29.87      
Jul 11 20:54 SSW 16 10 Mostly Cloudy FEW011 SCT130 BKN210 76 66     71%   77 29.87 29.86      
Jul 11 19:54 SSW 9 10 Cloudy FEW031 FEW070 BKN130 OVC210 77 65     66%   78 29.87 29.87      
Jul 11 18:54 S 15 10 Cloudy FEW025 FEW065 SCT130 OVC210 79 63     58%   79 29.87 29.86      
Jul 11 17:54 S 20 10 Cloudy and Windy FEW026 FEW070 BKN130 OVC230 81 63     54%   82 29.87 29.87      
Jul 11 16:54 S 17 10 Mostly Cloudy FEW027 SCT070 SCT130 BKN250 82 63     53%   83 29.88 29.88      
Jul 11 15:54   10 Cloudy FEW026 FEW041 BKN055 OVC130 82 61     49%   83 29.9 29.89      
Jul 11 14:54 S 17 10 Cloudy FEW055 BKN120 OVC250 83 62     49%   84 29.91 29.91      
Jul 11 13:54   10 Mostly Cloudy SCT029 BKN042 BKN250 86 68     55%   89 29.91 29.91      
Jul 11 11:54 SSE 10 10 Mostly Cloudy FEW017 FEW035 BKN250 81 70     69%   84 29.96 29.95      
Jul 11 10:54 S 9 7 Cloudy OVC013 77 69     77%   78 29.97 29.97      
Notice The following observation data may not be complete
Jul 11 10:34   7 Mostly Cloudy BKN011 BKN050 BKN250          %              
Jul 11 09:54 S 10 5 Fog/Mist FEW035 BKN250 76 69     79%   77 29.98 29.98      
Jul 11 08:54 SE 7 5 Fog/Mist FEW180 BKN250 73 68     84%   74 30 29.99      
Jul 11 07:54 SE 8 4 Haze FEW160 SCT250 72 67     84%   73 30 29.99      
Jul 11 06:54 S 7 7 Mostly Clear FEW160 FEW250 72 68     87%   73 30 29.99      
Jul 11 05:54 S 6 10 Partly Cloudy FEW180 SCT250 71 66     84%   72 29.99 29.98      
Jul 11 04:54 SSW 6 10 Mostly Cloudy BKN220 72 66     82%   73 29.98 29.98      
Jul 11 02:54 S 5 10 Mostly Clear FEW250 73 66     79%   74 29.97 29.97      
Jul 11 01:54 S 5 10 Mostly Clear FEW200 74 65     74%   74 29.97 29.97      
Jul 11 00:54 Calm 10 Mostly Clear FEW200 75 66     74%   76 29.97 29.97      
Jul 10 23:54 S 5 10 Mostly Clear FEW200 FEW250 75 66     74%   76 29.97 29.97      
Jul 10 22:54 S 5 10 Mostly Clear FEW200 FEW250 76 65     69%   76 29.98 29.98      
Jul 10 21:54 SSE 7 10 Mostly Cloudy FEW110 BKN200 BKN250 75 64     69%   75 29.99 29.98      
Jul 10 20:54 ESE 6 10 Mostly Cloudy FEW110 BKN200 BKN250 74 63     69%   74 29.99 29.98      
Jul 10 17:54 ENE 10 10 Mostly Cloudy SCT075 BKN200 BKN270 77 63     62%   77 29.99 29.99      
Jul 10 16:54 E 13 10 Mostly Cloudy SCT075 BKN200 BKN270 78 63     60%   78 29.99 29.99      
Jul 10 15:54 E 15 10 Mostly Cloudy FEW075 BKN200 BKN270 80 62     54%   81 30 29.99      
Jul 10 14:54 ESE 14 10 Partly Cloudy FEW070 SCT250 82 64     55%   84 29.99 29.98      
Jul 10 13:54 ENE 10 10 Mostly Clear FEW070 FEW250 87 58     37%   86 29.99 29.99      
Jul 10 12:54 E 9 10 Clear   87 59     39%   86 30 30      
Jul 10 11:54 E 8 10 Partly Cloudy FEW055 SCT250 86 59     40%   85 30.01 30.01      
Jul 10 10:54 E 7 10 Mostly Cloudy BKN250 85 61     45%   85 30.02 30.01      
Jul 10 09:54 Calm 10 Mostly Cloudy BKN250 86 57     37%   85 30.03 30.03      
Notice The following observation data may not be complete
Jul 10 08:54 W 3 10 Mostly Cloudy BKN250   59      %     30.04 30.03      
Jul 10 07:54 WNW 6 10 Mostly Cloudy BKN250 78 58     50%   78 30.04 30.03      
Jul 10 06:54 WNW 7 10 Partly Cloudy SCT250 77 59     54%   77 30.02 30.02      
Jul 10 05:54 WNW 6 10 Partly Cloudy SCT250 74 57     56%   74 30.01 30.01      
Jul 10 04:54 WNW 6 10 Partly Cloudy SCT250 74 57     56%   74 30.01 30.01      
Jul 10 03:54 WNW 6 10 Mostly Clear FEW250 75 56     52%   75 30 30      
Jul 10 02:54 WNW 9 10 Mostly Clear FEW250 76 56     50%   76 30 30      
Jul 10 01:54 WNW 8 10 Mostly Cloudy BKN250 76 57     52%   76 30.01 30.01      
Jul 10 00:54 WNW 7 10 Partly Cloudy SCT250 78 56     47%   78 30.01 30.01      
Jul 09 23:54 WNW 9 10 Partly Cloudy SCT250 79 56     45%   79 30.01 30.01      
Jul 09 22:54 WNW 8 10 Partly Cloudy SCT250 81 56     42%   81 30 30      
Jul 09 21:54 W 7 10 Clear   83 55     38%   82 30 30      
Jul 09 20:54 6 10 Mostly Cloudy FEW075 SCT200 BKN270 83 55     38%   82 29.99 29.99      
Jul 09 19:54 WSW 9 10 Mostly Cloudy FEW080 SCT200 BKN270 85 54     35%   83 29.98 29.97      
Jul 09 18:54 WSW 8 10 Mostly Cloudy FEW080 BKN250 87 51     29%   85 29.96 29.96      
Jul 09 17:54 WNW 9 10 Mostly Cloudy FEW075 BKN250 88 49     26%   85 29.96 29.96      
Jul 09 16:54 W 11 10 Partly Cloudy FEW075 SCT250 88 52     29%   86 29.97 29.96      
Jul 09 15:54 SE 8 10 Partly Cloudy FEW050 SCT250 84        %     29.98 29.98      
Jul 09 14:54   10 Mostly Clear FEW050 FEW250 84 56     38%   83 29.98 29.98      
Jul 09 13:54 Calm 10 Mostly Clear FEW050 FEW250 87 52     30%   85 29.98 29.98      
May 15 07:22   6 Fog/Mist BKN006 BKN250 59 57     93%     29.85        
May 14 06:51 S 7 10 Cloudy FEW009 BKN030 OVC037 52 48     87%     30.03        
May 13 12:54 ENE 8 10 Clear   52 47     83%     30.21 30.21      
Notice The following observation data may not be complete
May 13 09:08   7 Cloudy BKN010 BKN014 OVC026          %              
May 13 06:54 ENE 8 1.5 Fog/Mist OVC004 48 47     96% 44   30.18 30.18      
Notice The following observation data may not be complete
May 12 19:54   3 Fog/Mist BKN006 OVC012          %         0   0
May 12 15:54 NNE 7 3 Light Rain and Fog/Mist BKN013 OVC045 49 46     90% 46   30.12 30.11 0    
Notice The following observation data may not be complete
May 11 19:54 E 8 10 Mostly Cloudy FEW035 SCT170 BKN310   43      %     30.06 30.05      
May 11 17:54 NW 10 10 Mostly Cloudy FEW035 BKN170 BKN310 70 22     16%     30 30      
Jun 12 05:54 WSW 6 10 Mostly Clear FEW150 FEW250 72 63     73%   72 29.96 29.95      
Jun 10 18:54 S 14 10 Clear   78 55     45%   78 29.91 29.91      
Jun 09 12:54 SE 8 10 Mostly Cloudy FEW050 BKN140 BKN250 70        %     29.63 29.63      
Jun 09 00:54 NE 6 10 Cloudy OVC130 56 53     90%     29.81 29.81      
Jun 08 19:54 SE 9 10 Cloudy BKN130 OVC250 61        %     29.91 29.91      
Jun 08 08:54 SSE 6 10 Partly Cloudy SCT250 61 54     78%     30.05 30.04      
Jun 06 14:26   3 Light Rain and Fog/Mist SCT008 BKN012 OVC023 48 48     100%     29.85   0    
Jun 06 13:33 NNE 18 1.25 Rain and Fog/Mist SCT005 BKN010 OVC016 48 47     96% 41   29.86   0